When you browse on this site, cookies collect data to enhance your experience and personalize the content and advertising you see.
Visit our Privacy Policy to learn more. By continuing to use the site, you agree to this use of cookies and data.
  • In Hungary
  • List of Countries
  • For 7 days
  • Water Temperature
  • Satellite Maps
  • Weather Map
  • News
  • Weather Widgets
  • user-avatar
    Login

    Hourly Weather Kashperivka

    Today, 20 February, Wednesday

    Time Temperature Precipitation Wind Pressure Humidity
    00:00 -1°C° 0 mm 5 mps 744 mmHg 87%
    01:00 -1°C° 0 mm 5 mps 744 mmHg 89%
    02:00 -2°C° 0 mm 4 mps 744 mmHg 92%
    03:00 -2°C° 0 mm 4 mps 743 mmHg 93%
    04:00 -1°C° 0 mm 5 mps 743 mmHg 94%
    05:00 -1°C° 0 mm 5 mps 742 mmHg 95%
    06:00 -1°C° 0 mm 5 mps 742 mmHg 95%
    07:00 -1°C° 0 mm 4 mps 742 mmHg 95%
    08:00 -1°C° 0 mm 4 mps 742 mmHg 94%
    09:00 0°C° 0 mm 4 mps 742 mmHg 92%
    10:00 +3°C° 0 mm 4 mps 742 mmHg 89%
    11:00 +4°C° 0 mm 4 mps 742 mmHg 87%
    12:00 +4°C° 0 mm 4 mps 742 mmHg 85%
    13:00 +5°C° 0 mm 5 mps 742 mmHg 83%
    14:00 +5°C° 0 mm 5 mps 742 mmHg 82%
    15:00 +3°C° 0 mm 5 mps 742 mmHg 82%
    16:00 +3°C° 0 mm 5 mps 742 mmHg 82%
    17:00 +3°C° 0 mm 4 mps 743 mmHg 82%
    18:00 +3°C° 0 mm 4 mps 743 mmHg 82%
    19:00 +1°C° 0 mm 4 mps 743 mmHg 83%
    20:00 +1°C° 0 mm 3 mps 743 mmHg 84%
    21:00 +1°C° 0 mm 4 mps 743 mmHg 82%
    22:00 +1°C° 0 mm 4 mps 743 mmHg 80%
    23:00 +1°C° 0 mm 5 mps 743 mmHg 79%

    Tomorrow, 21 February, Thursday

    Time Temperature Precipitation Wind Pressure Humidity
    00:00 +1°C° 0 mm 5 mps 743 mmHg 79%
    01:00 +1°C° 0 mm 5 mps 743 mmHg 79%
    02:00 +1°C° 0 mm 6 mps 743 mmHg 80%
    03:00 -1°C° 0 mm 6 mps 743 mmHg 80%
    04:00 -1°C° 0 mm 6 mps 743 mmHg 80%
    05:00 -1°C° 0 mm 7 mps 743 mmHg 80%
    06:00 -2°C° 0 mm 7 mps 743 mmHg 78%
    07:00 -3°C° 0 mm 7 mps 744 mmHg 76%
    08:00 -4°C° 0 mm 7 mps 744 mmHg 74%
    09:00 -3°C° 0 mm 7 mps 745 mmHg 68%
    10:00 -3°C° 0 mm 7 mps 745 mmHg 63%
    11:00 -2°C° 0 mm 8 mps 745 mmHg 57%
    12:00 -2°C° 0 mm 8 mps 745 mmHg 54%
    13:00 -1°C° 0 mm 8 mps 745 mmHg 52%
    14:00 -1°C° 0 mm 8 mps 745 mmHg 50%
    15:00 -1°C° 0 mm 7 mps 745 mmHg 51%
    16:00 -1°C° 0 mm 6 mps 745 mmHg 53%
    17:00 -1°C° 0 mm 5 mps 745 mmHg 54%
    18:00 -1°C° 0 mm 4 mps 746 mmHg 57%
    19:00 -1°C° 0 mm 3 mps 746 mmHg 60%
    20:00 -1°C° 0 mm 2 mps 746 mmHg 63%
    21:00 -1°C° 0 mm 2 mps 746 mmHg 63%
    22:00 -1°C° 0 mm 2 mps 746 mmHg 62%
    23:00 +1°C° 0 mm 1 mps 746 mmHg 62%

    Day after tomorrow, 22 February, Friday

    Time Temperature Precipitation Wind Pressure Humidity
    00:00 +1°C° 0.1 mm 1 mps 746 mmHg 66%
    01:00 -1°C° 0.1 mm 0 mps 745 mmHg 71%
    02:00 -1°C° 0.1 mm 0 mps 745 mmHg 75%
    03:00 0°C° 0.8 mm 1 mps 745 mmHg 81%
    04:00 -3°C° 0.8 mm 2 mps 744 mmHg 87%
    05:00 -4°C° 0.8 mm 3 mps 743 mmHg 93%
    06:00 -4°C° 0.7 mm 4 mps 743 mmHg 93%
    07:00 -6°C° 0.7 mm 5 mps 743 mmHg 92%
    08:00 -6°C° 0.7 mm 6 mps 743 mmHg 91%
    09:00 -6°C° 0.5 mm 6 mps 743 mmHg 90%
    10:00 -8°C° 0.5 mm 7 mps 744 mmHg 88%
    11:00 -8°C° 0.5 mm 7 mps 744 mmHg 87%
    12:00 -8°C° 0.2 mm 7 mps 745 mmHg 83%
    13:00 -9°C° 0.2 mm 7 mps 746 mmHg 79%
    14:00 -9°C° 0.2 mm 7 mps 746 mmHg 75%
    15:00 -9°C° 0 mm 7 mps 747 mmHg 73%
    16:00 -11°C° 0 mm 7 mps 748 mmHg 71%
    17:00 -11°C° 0 mm 7 mps 748 mmHg 69%
    18:00 -12°C° 0 mm 7 mps 749 mmHg 70%
    19:00 -11°C° 0 mm 6 mps 750 mmHg 72%
    20:00 -12°C° 0 mm 6 mps 750 mmHg 74%
    21:00 -12°C° 0 mm 6 mps 750 mmHg 75%
    22:00 -12°C° 0 mm 6 mps 751 mmHg 76%
    23:00 -12°C° 0 mm 5 mps 751 mmHg 77%

    23 February, Saturday

    Time Temperature Precipitation Wind Pressure Humidity
    00:00 -12°C° 0.1 mm 6 mps 751 mmHg 76%
    01:00 -12°C° 0.1 mm 6 mps 752 mmHg 75%
    02:00 -12°C° 0.1 mm 6 mps 752 mmHg 73%
    03:00 -12°C° 0 mm 6 mps 752 mmHg 76%
    04:00 -14°C° 0 mm 6 mps 752 mmHg 78%
    05:00 -14°C° 0 mm 6 mps 753 mmHg 80%
    06:00 -14°C° 0.1 mm 6 mps 753 mmHg 80%
    07:00 -14°C° 0.1 mm 6 mps 754 mmHg 79%
    08:00 -12°C° 0.1 mm 6 mps 754 mmHg 79%
    09:00 -12°C° 0.1 mm 6 mps 755 mmHg 77%
    10:00 -11°C° 0.1 mm 6 mps 755 mmHg 75%
    11:00 -11°C° 0.1 mm 6 mps 755 mmHg 74%
    12:00 -11°C° 0 mm 6 mps 755 mmHg 73%
    13:00 -10°C° 0 mm 6 mps 755 mmHg 72%
    14:00 -10°C° 0 mm 6 mps 755 mmHg 71%
    15:00 -10°C° 0 mm 6 mps 755 mmHg 72%
    16:00 -10°C° 0 mm 5 mps 755 mmHg 73%
    17:00 -10°C° 0 mm 5 mps 756 mmHg 75%
    18:00 -11°C° 0 mm 5 mps 756 mmHg 77%
    19:00 -10°C° 0 mm 4 mps 756 mmHg 79%
    20:00 -11°C° 0 mm 4 mps 756 mmHg 81%
    21:00 -11°C° 0 mm 4 mps 756 mmHg 82%
    22:00 -12°C° 0 mm 4 mps 756 mmHg 84%
    23:00 -12°C° 0 mm 3 mps 757 mmHg 85%

    24 February, Sunday

    Time Temperature Precipitation Wind Pressure Humidity
    00:00 -12°C° 0 mm 3 mps 756 mmHg 87%
    01:00 -12°C° 0 mm 3 mps 756 mmHg 88%
    02:00 -10°C° 0 mm 2 mps 756 mmHg 89%
    03:00 -12°C° 0 mm 3 mps 756 mmHg 89%
    04:00 -12°C° 0 mm 3 mps 756 mmHg 89%
    05:00 -12°C° 0 mm 3 mps 756 mmHg 89%
    06:00 -12°C° 0 mm 3 mps 756 mmHg 89%
    07:00 -12°C° 0 mm 3 mps 756 mmHg 88%
    08:00 -12°C° 0 mm 3 mps 756 mmHg 88%
    09:00 -10°C° 0 mm 3 mps 756 mmHg 83%
    10:00 -9°C° 0 mm 3 mps 757 mmHg 79%
    11:00 -8°C° 0 mm 3 mps 757 mmHg 75%
    12:00 -7°C° 0 mm 3 mps 756 mmHg 73%
    13:00 -6°C° 0 mm 3 mps 756 mmHg 72%
    14:00 -6°C° 0 mm 3 mps 756 mmHg 70%
    15:00 -6°C° 0 mm 3 mps 756 mmHg 73%
    16:00 -5°C° 0 mm 2 mps 755 mmHg 77%
    17:00 -6°C° 0 mm 2 mps 755 mmHg 80%
    18:00 -6°C° 0 mm 2 mps 755 mmHg 82%
    19:00 -6°C° 0 mm 2 mps 755 mmHg 85%
    20:00 -7°C° 0 mm 2 mps 755 mmHg 88%
    21:00 -6°C° 0 mm 2 mps 755 mmHg 90%
    22:00 -6°C° 0 mm 2 mps 755 mmHg 92%
    23:00 -6°C° 0 mm 2 mps 755 mmHg 94%

    25 February, Monday

    Time Temperature Precipitation Wind Pressure Humidity
    00:00 -6°C° 0 mm 2 mps 755 mmHg 95%
    01:00 -6°C° 0 mm 2 mps 755 mmHg 95%
    02:00 -5°C° 0 mm 2 mps 755 mmHg 96%
    03:00 -5°C° 0 mm 2 mps 754 mmHg 96%
    04:00 -5°C° 0 mm 2 mps 754 mmHg 96%
    05:00 -4°C° 0 mm 2 mps 753 mmHg 97%
    06:00 -5°C° 0 mm 3 mps 753 mmHg 96%
    07:00 -4°C° 0 mm 3 mps 753 mmHg 95%
    08:00 -2°C° 0 mm 3 mps 753 mmHg 95%
    09:00 -2°C° 0 mm 3 mps 753 mmHg 93%
    10:00 -2°C° 0 mm 4 mps 753 mmHg 92%
    11:00 -2°C° 0 mm 4 mps 752 mmHg 90%
    12:00 -1°C° 0 mm 4 mps 752 mmHg 89%
    13:00 -1°C° 0 mm 4 mps 751 mmHg 88%
    14:00 -1°C° 0 mm 4 mps 751 mmHg 87%
    15:00 -1°C° 0 mm 4 mps 750 mmHg 88%
    16:00 -1°C° 0 mm 4 mps 750 mmHg 89%
    17:00 -1°C° 0 mm 4 mps 749 mmHg 90%
    18:00 -1°C° 0 mm 4 mps 749 mmHg 90%
    19:00 -1°C° 0 mm 5 mps 749 mmHg 91%
    20:00 -1°C° 0 mm 5 mps 748 mmHg 91%
    21:00 -2°C° 0 mm 6 mps 748 mmHg 90%
    22:00 -2°C° 0 mm 6 mps 748 mmHg 89%
    23:00 -2°C° 0 mm 7 mps 748 mmHg 88%
    Show more